Simultaneous Nadir Overpasses (SNOs) Predictions

Prediction of SNOs between LANDSAT-8 and METOP-B Satellite Orbit:

Table of predicted SNOs for the next 14.0 days since TLE Epoch: 6/6/2020
Index Date (LANDSAT-8) Time (LANDSAT-8) Lat,Lon (LANDSAT-8) SZA (LANDSAT-8 ) Date (METOP-B) Time (METOP-B) Lat,Lon (METOP-B) SZA (METOP-B ) Distance(km) Time Diff (sec)
1 06/08/2020 15:02:08 81.15, -5.09 60.47 06/08/2020 15:00:57 81.15, -5.03 60.45 1.02 71
2 06/08/2020 15:51:34 -81.17, 162.85 119.49 06/08/2020 15:51:37 -81.17, 162.78 119.50 1.34 3
3 06/11/2020 10:36:27 81.14, 61.08 60.21 06/11/2020 10:35:19 81.14, 61.16 60.20 1.75 68
4 06/11/2020 11:25:53 -81.16,-130.95 119.75 06/11/2020 11:25:59 -81.16,-130.98 119.74 0.68 6
5 06/14/2020 06:10:45 81.15, 127.76 60.08 06/14/2020 06:09:40 81.15, 127.73 60.04 0.60 65
6 06/14/2020 07:00:11 -81.17, -64.25 119.87 06/14/2020 07:00:20 -81.17, -64.39 119.89 2.57 9
7 06/17/2020 01:45:03 81.15,-165.78 59.97 06/17/2020 01:44:00 81.15,-165.72 59.95 1.03 63
8 06/17/2020 02:34:29 -81.18, 2.24 119.98 06/17/2020 02:34:40 -81.17, 2.19 119.99 1.07 11
9 06/19/2020 21:19:23 81.14, -99.54 59.88 06/19/2020 21:18:22 81.14, -99.57 59.85 0.49 61




NCC Satellite Simultaneous Nadir Overpasses (SNOs) Prediction Service
